Location: Usti nad Labem
(50.6670°N, 14.0330°E)
Time: 22:38:49
(UTC+02:00)

ISS - Visible Passes

Search period start: 01 October 2016 00:00
Search period end: 11 October 2016 00:00
Orbit: 400 x 409 km, 51.6° (Epoch: 02 October)

Date Brightness Start Highest point End Pass type
(mag) Time Alt. Az. Time Alt. Az. Time Alt. Az.
01 Oct -1.7 19:33:26 10° S 19:35:49 19° SE 19:37:23 14° ESE visible
01 Oct -1.3 21:08:40 10° WSW 21:10:03 23° WSW 21:10:03 23° WSW visible
02 Oct -3.1 20:16:39 10° SW 20:19:49 50° SSE 20:20:11 47° SE visible
03 Oct -2.5 19:24:47 10° SW 19:27:46 34° SSE 19:30:13 14° E visible
03 Oct -1.9 21:00:48 10° W 21:02:52 36° W 21:02:52 36° W visible
04 Oct -3.4 20:08:38 10° WSW 20:11:54 79° SSE 20:12:48 44° E visible
04 Oct 0.0 21:45:11 10° W 21:45:28 12° W 21:45:28 12° W visible
05 Oct -3.1 19:16:32 10° WSW 19:19:45 57° SSE 19:22:40 12° E visible
05 Oct -2.2 20:52:58 10° W 20:55:19 43° WNW 20:55:19 43° WNW visible
06 Oct -3.4 20:00:43 10° W 20:03:59 80° N 20:05:08 37° ENE visible
06 Oct -0.1 21:37:18 10° WNW 21:37:47 14° WNW 21:37:47 14° WNW visible
07 Oct -3.3 19:08:30 10° WSW 19:11:46 86° SSE 19:14:54 11° ENE visible
07 Oct -2.4 20:45:05 10° W 20:47:33 48° WNW 20:47:33 48° WNW visible
08 Oct -3.3 19:52:49 10° W 19:56:04 72° N 19:57:18 35° ENE visible
08 Oct -0.2 21:29:21 10° WNW 21:29:57 15° WNW 21:29:57 15° WNW visible
09 Oct -3.3 19:00:32 10° W 19:03:48 76° N 19:07:02 10° E visible
09 Oct -2.6 20:37:06 10° WNW 20:39:41 53° WNW 20:39:41 53° WNW visible
10 Oct -3.4 19:44:50 10° W 19:48:06 77° N 19:49:25 33° E visible
10 Oct -0.2 21:21:23 10° W 21:22:04 15° W 21:22:04 15° W visible
